Location: Le Rocchette
(44.3500°N, 7.8333°E)
Time: 02:12:13
(UTC+00:00)

Shenzhou-11 Module - Pass Details

Date: 17 November 2019
Orbit: 307 x 321 km, 42.8° (Epoch: 07 December)

Event Time Altitude Azimuth Distance (km) Brightness Sun altitude
Exits shadow 05:20:37 18° 248° (WSW) 854 3.4 -11.9°
Maximum altitude 05:21:58 28° 200° (SSW) 616 3.0 -11.6°
Drops below altitude 10° 05:24:21 10° 137° (SE) 1,196 5.5 -11.2°
Sets 05:26:27 0° 125° (SE) 2,025 7.3 -10.9°
